[[{"header":{"parameterUnit":"m.s-1","parameterCategory":1,"la1":30.2991,"la2":30.254,"lo1":-89.0895,"lo2":-89.0444,"dy":0.0017,"dx":0.0017,"nx":28,"ny":28,"refTime":"2024-08-14T21:00:00:Z","depth":0,"parameterNumber":2,"parameterNumberName":"U-component_of_WINDS"},"data":[0,0,0,0,0,0,0,0,0,0,0,0,0,0,0,0,0,0,0,0,0,0,0,0,0,0,0,0,0,0,0,0,0,0,0,0,0,0,0,0,0,0,0,0,0,0,0,0,0,0,0,0,0,0,0,0,0,0,2.7511,2.7512,0,2.7637,2.7638,2.764,2.7618,2.7616,2.7613,2.7611,2.7741,2.7746,2.7751,0,0,0,0,0,0,0,0,0,0,0,0,0,2.725,2.7255,2.7511,2.7512,2.7514,2.7636,2.7638,2.764,2.7618,2.7616,2.7613,2.761,2.7739,2.7745,2.7752,0,0,0,0,0,0,0,0,0,0,0,0,0,2.7368,2.7256,2.7511,2.7518,2.752,2.7636,2.7638,2.764,2.7619,2.7615,2.7612,2.7609,2.7737,2.7745,2.7753,2.787,0,0,2.7778,2.7781,0,0,0,0,0,0,0,0,2.7361,2.7378,2.7515,2.7518,2.752,2.7608,2.7593,2.7717,2.762,2.7581,2.7611,2.7607,2.7699,2.771,2.7741,2.7876,2.7881,2.7779,2.7784,2.7787,2.779,0,0,0,0,0,0,0,2.7353,2.7372,2.7561,2.7517,2.752,2.7514,2.7527,2.7617,2.7657,2.7584,2.7583,2.7598,2.77,2.7733,2.7744,2.7883,2.7778,2.7786,2.7791,2.7794,2.8116,2.812,0,0,0,0,0,0,2.7343,2.7366,2.7557,2.7564,2.7431,2.7522,2.7536,2.7583,2.7656,2.7664,2.7601,2.7597,2.7721,2.7734,2.7749,2.7888,2.7787,2.7795,2.78,2.8113,2.8117,2.8121,0,0,0,0,0,0,2.7337,2.736,2.7552,2.7465,2.7489,2.753,2.7582,2.7587,2.7621,2.7669,2.7676,2.7628,2.7719,2.7737,2.7839,2.7892,2.7799,2.7806,2.8109,2.8114,2.8119,2.8168,0,0,0,0,0,0,2.733,2.7358,2.7404,2.7466,2.7493,2.7641,2.7586,2.7592,2.7635,2.7631,2.7696,2.7703,2.7718,2.7827,2.7847,2.7901,2.7813,2.8104,2.8111,2.8117,2.8162,2.8175,2.8185,0,0,0,0,0,2.7321,2.7414,2.7406,2.743,2.7551,2.7644,2.7659,2.7674,2.764,2.7685,2.7715,2.7701,2.7883,2.7837,2.786,2.7918,2.8101,2.8109,2.8117,2.8157,2.8172,2.8185,0,0,0,0,0,0,2.7358,2.7422,2.7415,2.753,2.7582,2.764,2.7698,2.769,2.7752,2.7746,2.7761,2.7776,2.7878,2.7909,2.7857,2.8033,2.7987,2.8,2.8009,2.8024,2.8036,2.8026,2.7819,0,0,0,0,0,2.7379,2.7449,2.7502,2.7599,2.7625,2.7657,2.7698,2.7704,2.7758,2.778,2.7817,2.787,2.7938,2.7983,2.805,2.8167,2.8179,2.8217,2.8229,2.8238,2.8249,2.831,2.8326,2.8148,2.8148,2.8148,0,0,2.7425,2.7468,2.7512,2.7607,2.7648,2.7719,2.7675,2.7753,2.7806,2.7792,2.7889,2.7919,2.7978,2.8087,2.8137,2.8115,2.8301,2.8249,2.8256,2.8261,2.832,2.8337,2.8352,2.8153,2.8152,2.8151,0,0,2.7543,2.7584,2.7668,2.7709,2.777,2.779,2.781,2.787,2.7888,2.7986,2.7976,2.8039,2.8158,2.8199,2.8236,2.8367,2.8355,2.8388,2.8449,2.8508,2.8522,2.8534,2.8578,2.8594,2.8399,2.8399,2.8399,0,2.7592,2.7699,2.7712,2.779,2.7831,2.7821,2.7904,2.7943,2.8023,2.8051,2.8026,2.8172,2.8212,2.8329,2.836,2.8392,2.8413,2.838,2.8519,2.8532,2.8543,2.8585,2.8602,2.8403,2.8402,2.8402,2.8401,0,2.7754,2.7828,2.7888,2.7964,2.8012,2.8093,2.8117,2.8164,2.8166,2.8188,2.8287,2.8334,2.8407,2.8436,2.8439,2.8553,2.8537,2.8515,2.8469,2.8564,2.8603,2.862,2.8407,2.8406,2.8405,2.8404,0,0,2.79,2.798,2.8002,2.8034,2.81,2.8157,2.8237,2.8308,2.8346,2.8402,2.8467,2.8566,2.8545,2.8587,2.8595,2.8647,2.8744,2.8619,2.862,2.8638,2.8868,2.8882,2.8901,2.8737,2.874,2.8743,2.8862,0,2.8022,2.8161,2.8174,2.8299,2.8366,2.8356,2.8424,2.8471,2.8494,2.8554,2.8579,2.8648,2.8617,2.8641,2.8693,2.8721,2.879,2.8713,2.8796,2.8799,2.8779,2.8922,2.8938,2.9049,2.8878,2.8881,2.8883,0,2.8184,2.8241,2.8372,2.8426,2.8454,2.8516,2.858,2.8638,2.869,2.8703,2.8748,2.8748,2.8828,2.8779,2.8888,2.8836,2.887,2.8889,2.8894,2.8901,2.8845,2.8931,2.9085,2.91,2.8908,2.8906,2.8904,0,2.8273,2.8384,2.8476,2.8505,2.857,2.8613,2.8642,2.8691,2.8732,2.8789,2.8815,2.8881,2.8916,2.8966,2.8983,2.8947,2.909,2.9044,2.9102,2.9101,2.9131,2.9129,2.9291,2.9157,2.9157,2.9157,2.9157,0,2.8407,2.8487,2.8516,2.8573,2.8661,2.8675,2.8761,2.8788,2.8831,2.8892,2.8888,2.8944,2.8964,2.9024,2.9038,2.9124,2.9141,2.9152,2.9154,2.9151,2.9149,2.9173,2.9165,2.9161,2.916,2.9159,2.9159,0,2.8522,2.8545,2.8644,2.8697,2.8712,2.8774,2.8819,2.8872,2.8893,2.8969,2.8988,2.9021,2.9091,2.9113,2.9198,2.9207,2.9306,2.9303,2.9288,2.9288,2.9343,2.9337,2.9524,2.9548,2.9401,2.9403,2.9404,0,2.8605,2.8665,2.8724,2.8764,2.8794,2.8859,2.89,2.8915,2.8958,2.902,2.9066,2.9134,2.919,2.9301,2.9332,2.9396,2.9393,2.9454,2.9403,2.9396,2.9391,2.9386,2.939,2.9463,2.9465,2.9466,2.9467,0,2.8749,2.8756,2.8816,2.8878,2.8927,2.8978,2.9026,2.9059,2.9081,2.9129,2.92,2.9243,2.9327,2.9395,2.9459,2.9488,2.9481,2.9483,2.9499,2.9496,2.9483,2.9488,2.9312,2.9479,2.9477,2.9477,2.9476,2.9476,2.8848,2.89,2.8949,2.9014,2.9052,2.9097,2.9148,2.9175,2.9234,2.9303,2.9309,2.9384,2.9433,2.9518,2.955,2.9609,2.9591,2.9615,2.9621,2.9626,2.9629,2.9476,2.9621,2.9621,2.962,2.962,2.962,0,2.8989,2.9019,2.9079,2.9146,2.9197,2.9185,2.9238,2.9281,2.9347,2.9392,2.9446,2.9526,2.959,2.9626,2.969,2.973,2.9728,2.9746,2.9742,2.9748,2.9643,2.9621,2.9746,2.9746,2.9746,2.9746,2.9746,2.9746,2.9068,2.9155,2.9168,2.9272,2.9302,2.9375,2.9405,2.9446,2.9482,2.957,2.9623,2.9646,2.9687,2.9753,2.9811,2.982,2.9842,2.9862,2.9869,2.9769,2.9756,2.9744,2.9723,2.9868,2.9868,2.9969,2.997,2.997]},{"header":{"parameterUnit":"m.s-1","parameterCategory":1,"la1":30.2991,"la2":30.254,"lo1":-89.0895,"lo2":-89.0444,"dy":0.0017,"dx":0.0017,"nx":28,"ny":28,"refTime":"2024-08-14T21:00:00:Z","depth":0,"parameterNumber":3,"parameterNumberName":"V-component_of_WINDS"},"data":[0,0,0,0,0,0,0,0,0,0,0,0,0,0,0,0,0,0,0,0,0,0,0,0,0,0,0,0,0,0,0,0,0,0,0,0,0,0,0,0,0,0,0,0,0,0,0,0,0,0,0,0,0,0,0,0,0,0,2.5046,2.5045,0,2.4927,2.4926,2.4924,2.4801,2.4799,2.4797,2.4796,2.467,2.4668,2.4667,0,0,0,0,0,0,0,0,0,0,0,0,0,2.5163,2.5162,2.5047,2.5045,2.5044,2.4927,2.4925,2.4924,2.4801,2.4799,2.4797,2.4795,2.4671,2.4669,2.4666,0,0,0,0,0,0,0,0,0,0,0,0,0,2.5085,2.5161,2.5047,2.4968,2.496,2.4927,2.4925,2.4923,2.4801,2.4799,2.4796,2.4794,2.4671,2.4669,2.4666,2.4701,0,0,2.4658,2.4657,0,0,0,0,0,0,0,0,2.509,2.5081,2.4981,2.4974,2.4964,2.4876,2.492,2.4849,2.4802,2.4862,2.4796,2.4793,2.4741,2.4732,2.4715,2.4695,2.4689,2.4658,2.4656,2.4655,2.4654,0,0,0,0,0,0,0,2.5095,2.5085,2.4999,2.498,2.497,2.4937,2.4923,2.4906,2.4817,2.4856,2.4847,2.4835,2.4735,2.4718,2.4711,2.4687,2.4658,2.4656,2.4654,2.4653,2.4684,2.4686,0,0,0,0,0,0,2.5113,2.5091,2.5003,2.4995,2.5022,2.4937,2.4922,2.4907,2.4816,2.48,2.4837,2.4829,2.4724,2.4714,2.4706,2.4737,2.4655,2.4653,2.4651,2.4681,2.4684,2.4687,0,0,0,0,0,0,2.5116,2.5107,2.5008,2.504,2.5025,2.4938,2.4922,2.4906,2.4888,2.4802,2.4785,2.4836,2.4721,2.471,2.4702,2.4731,2.4651,2.4649,2.4678,2.4682,2.4685,2.4801,0,0,0,0,0,0,2.512,2.5108,2.5122,2.5042,2.5024,2.5008,2.4924,2.4905,2.4884,2.4873,2.4796,2.4781,2.4718,2.4707,2.4699,2.4726,2.4647,2.4675,2.468,2.4684,2.4794,2.4808,2.482,0,0,0,0,0,2.5125,2.516,2.5123,2.5113,2.504,2.501,2.4999,2.4927,2.4888,2.4899,2.4843,2.4784,2.473,2.4707,2.4698,2.4724,2.4673,2.4679,2.4684,2.4789,2.4806,2.482,0,0,0,0,0,0,2.5245,2.5148,2.5106,2.5117,2.5073,2.4989,2.5002,2.4948,2.4913,2.4904,2.4815,2.4799,2.48,2.4761,2.4738,2.475,2.4693,2.4696,2.4775,2.4791,2.4804,2.4812,2.4645,0,0,0,0,0,2.5273,2.5258,2.5173,2.5191,2.517,2.509,2.5075,2.5023,2.4973,2.4953,2.4896,2.4849,2.482,2.4803,2.4773,2.4788,2.4767,2.4801,2.4815,2.4826,2.4829,2.483,2.4843,2.4705,2.4704,2.4704,0,0,2.5331,2.5275,2.5271,2.5213,2.5173,2.5157,2.5075,2.5063,2.505,2.4951,2.4939,2.4896,2.4836,2.4839,2.4838,2.4806,2.4863,2.4833,2.4842,2.4839,2.4837,2.485,2.4862,2.4708,2.4708,2.4707,0,0,2.5426,2.5385,2.5393,2.5353,2.5293,2.5239,2.5241,2.5165,2.5132,2.5119,2.5043,2.5025,2.498,2.4939,2.4913,2.499,2.4933,2.4983,2.505,2.5052,2.5063,2.5072,2.5096,2.5106,2.4987,2.4987,2.4988,0,2.5505,2.548,2.5404,2.5395,2.537,2.528,2.5286,2.5251,2.5184,2.5168,2.5134,2.5072,2.5026,2.5016,2.5035,2.5018,2.5014,2.4991,2.5068,2.5076,2.5083,2.5105,2.5115,2.4994,2.4993,2.4992,2.4992,0,2.5577,2.5561,2.5575,2.5512,2.5488,2.5488,2.5409,2.5394,2.5344,2.5292,2.5278,2.5219,2.5174,2.5168,2.5119,2.515,2.5132,2.5085,2.5025,2.5104,2.5123,2.5131,2.5003,2.5,2.4999,2.4997,0,0,2.5746,2.564,2.5646,2.5615,2.554,2.5525,2.5519,2.5474,2.5462,2.5418,2.5408,2.5369,2.5324,2.5294,2.5239,2.5241,2.5302,2.5193,2.519,2.5212,2.5328,2.5362,2.5374,2.5264,2.5265,2.5266,2.5331,0,2.5827,2.5812,2.5741,2.5745,2.5727,2.564,2.5633,2.5585,2.5537,2.5512,2.5458,2.5431,2.5375,2.5355,2.5354,2.5295,2.5323,2.529,2.525,2.525,2.5266,2.5384,2.5421,2.5486,2.5339,2.534,2.5341,0,2.592,2.5881,2.5884,2.5807,2.5796,2.5793,2.5744,2.5723,2.5666,2.563,2.5595,2.5533,2.5518,2.5464,2.5439,2.5418,2.5397,2.5366,2.5366,2.5358,2.5299,2.5377,2.5505,2.5514,2.5353,2.5352,2.5351,0,2.6039,2.5988,2.5982,2.5958,2.5869,2.5868,2.583,2.577,2.5747,2.5704,2.5688,2.5644,2.5619,2.5585,2.5512,2.548,2.5494,2.5435,2.5461,2.5463,2.5467,2.5467,2.5591,2.5458,2.5458,2.5458,2.5458,0,2.6136,2.614,2.6034,2.603,2.603,2.5949,2.5951,2.5905,2.5852,2.5835,2.5757,2.5742,2.5648,2.5621,2.5564,2.555,2.554,2.5508,2.5492,2.5514,2.5517,2.5498,2.549,2.546,2.546,2.5459,2.5459,0,2.6269,2.6198,2.6185,2.6102,2.6081,2.6085,2.6011,2.6003,2.5949,2.5928,2.5918,2.5833,2.5797,2.5721,2.5665,2.5626,2.5625,2.5598,2.5645,2.5634,2.5664,2.5661,2.5778,2.5787,2.5651,2.5653,2.5654,0,2.6334,2.6335,2.6251,2.6235,2.62,2.6176,2.6151,2.607,2.6047,2.598,2.5978,2.5937,2.5899,2.5846,2.5777,2.5732,2.5702,2.5746,2.5695,2.5715,2.5699,2.5699,2.5697,2.5757,2.5759,2.5761,2.5762,0,2.6456,2.642,2.6389,2.6345,2.6318,2.628,2.6236,2.6227,2.6134,2.6112,2.6075,2.6046,2.5988,2.5946,2.5891,2.5849,2.5789,2.5779,2.5782,2.5803,2.5829,2.5812,2.5673,2.5776,2.5775,2.5774,2.5773,2.5772,2.6554,2.655,2.649,2.6456,2.6415,2.6376,2.6363,2.6307,2.6275,2.6222,2.6176,2.6142,2.608,2.6,2.5962,2.5932,2.5903,2.5908,2.5909,2.5911,2.5919,2.5835,2.5922,2.5921,2.5921,2.592,2.592,0,2.667,2.6626,2.6597,2.6539,2.6512,2.646,2.6408,2.6388,2.636,2.6309,2.6273,2.6228,2.6187,2.6114,2.6066,2.6056,2.6026,2.6045,2.6044,2.6034,2.595,2.595,2.6069,2.6069,2.6069,2.6069,2.6069,2.6069,2.6726,2.6715,2.6672,2.6638,2.6594,2.6562,2.6536,2.6498,2.6456,2.6411,2.6376,2.633,2.6268,2.6214,2.6172,2.6151,2.6136,2.6163,2.6133,2.6055,2.6041,2.6027,2.6028,2.6161,2.6161,2.622,2.622,2.6221]}]]